This is the latest recevied weather packets stored in our database for station/object SQ3VAS-10. If no packets are shown the sender has not sent any weather packets the latest 10 day(s).
| Time | Temp. | Humidity | Pressure | Rain* | Wind** | Luminosity | Snow |
|---|---|---|---|---|---|---|---|
| 1777779416 | 11.11° C | 65% | 1014.9 hPa | - | - | - | - |
| 1777778843 | 10.56° C | 65% | 1015 hPa | - | - | - | - |
| 1777778271 | 11.11° C | 64% | 1015 hPa | - | - | - | - |
| 1777777700 | 11.11° C | 63% | 1014.9 hPa | - | - | - | - |
| 1777777128 | 11.11° C | 62% | 1015.1 hPa | - | - | - | - |
| 1777776556 | 11.11° C | 62% | 1015 hPa | - | - | - | - |
| 1777775985 | 11.67° C | 60% | 1015 hPa | - | - | - | - |
| 1777775414 | 12.22° C | 59% | 1015.1 hPa | - | - | - | - |
| 1777774842 | 12.22° C | 58% | 1015.2 hPa | - | - | - | - |
| 1777774270 | 12.78° C | 57% | 1015.2 hPa | - | - | - | - |
| 1777773700 | 13.33° C | 55% | 1015.3 hPa | - | - | - | - |
| 1777773128 | 13.89° C | 53% | 1015.3 hPa | - | - | - | - |
| 1777772555 | 13.89° C | 52% | 1015.3 hPa | - | - | - | - |
| 1777771984 | 14.44° C | 49% | 1015.4 hPa | - | - | - | - |
| 1777771413 | 15° C | 48% | 1015.3 hPa | - | - | - | - |
| 1777770841 | 15.56° C | 47% | 1015.2 hPa | - | - | - | - |
| 1777770270 | 15.56° C | 46% | 1015.3 hPa | - | - | - | - |
| 1777769696 | 16.11° C | 45% | 1015.3 hPa | - | - | - | - |
| 1777769123 | 16.11° C | 44% | 1015.2 hPa | - | - | - | - |
| 1777768551 | 16.11° C | 44% | 1015.4 hPa | - | - | - | - |
| 1777767979 | 16.67° C | 44% | 1015.6 hPa | - | - | - | - |
| 1777767406 | 16.67° C | 44% | 1015.5 hPa | - | - | - | - |
| 1777766834 | 16.67° C | 44% | 1015.6 hPa | - | - | - | - |
| 1777766261 | 16.67° C | 44% | 1015.7 hPa | - | - | - | - |
| 1777765687 | 16.67° C | 44% | 1015.7 hPa | - | - | - | - |
* Rain since midnight (hover to see other rain measurements)
** Current wind speed in m/s (hover to see current wind gust speed)